sat.trackr.live / text

‹ back to catalog

HULIANWANG DIGUI-58

NORAD 65164 · 2025-174A

PAYLOAD ACTIVE UNKNOWN

§ Identity

Operator
Country
PRC
Launch date
2025-08-13
Launch site
WSC
Launch vehicle
Mass (kg)
RCS (m²)

External: N2YO · Heavens-Above · Gunter

§ Orbital elements

Epoch: 2026-05-25T03:33:55.289376Z

Period
108.73 min
Inclination
86.4959°
Eccentricity
0.0001931
Mean motion
13.24404207 rev/d
Perigee alt
1,166.5 km
Apogee alt
1,169.4 km
Semi-major
7,546.1 km
B*
-2.0858e-5
RAAN
259.7842°
Arg perigee
95.5804°
Mean anomaly
264.5550°
Rev number
3,774

§ Raw data

HULIANWANG DIGUI-581 65164U 25174A   26145.14855659  .00000006  00000+0 -20858-4 0  99952 65164  86.4959 259.7842 0001931  95.5804 264.5550 13.24404207 37742

JSON: /api/v1/satellites/65164 · /tle

For live sub-satellite position, see the globe view (requires WebGL).

§ Visibility from observer

Set your observer location to see the next 7 days of passes ≥ 10°. The values pass through the URL so the page stays shareable.

No JS? Fill the form by hand. The geolocation button needs JavaScript.